GBNKE EGGP-EGCB

Flight info

Callsign GBNKE
Flight time 0h 19m
Altitude 2500
Route LLR
Aircraft PA24/L-ICAO/7000

Departure

Time 2026-04-12 06:25
Airport Liverpool John Lennon Airport (EGGP)

Arrival

Time 2026-04-12 06:44
Airport Manchester Barton Aerodrome (EGCB)
Time Latitude Longitude Altitude Speed Heading
2026-04-12 06:19 53.33648 -2.83853 84 ft 0 kts 265°
2026-04-12 06:21 53.33649 -2.83861 84 ft 3 kts 290°
2026-04-12 06:21 53.33661 -2.83854 84 ft 0 kts 75°
2026-04-12 06:21 53.33662 -2.83854 84 ft 0 kts 75°
2026-04-12 06:22 53.33656 -2.83814 84 ft 6 kts 136°
2026-04-12 06:22 53.33618 -2.83796 84 ft 6 kts 174°
2026-04-12 06:22 53.33586 -2.83774 84 ft 4 kts 120°
2026-04-12 06:22 53.33583 -2.83720 84 ft 12 kts 91°
2026-04-12 06:23 53.33524 -2.83631 86 ft 12 kts 176°
2026-04-12 06:23 53.33441 -2.83636 83 ft 13 kts 212°
2026-04-12 06:23 53.33418 -2.83792 86 ft 18 kts 264°
2026-04-12 06:23 53.33395 -2.84259 83 ft 63 kts 266°
2026-04-12 06:24 53.33373 -2.85113 146 ft 78 kts 260°
2026-04-12 06:24 53.33330 -2.86032 232 ft 82 kts 260°
2026-04-12 06:24 53.33321 -2.87027 348 ft 86 kts 267°
2026-04-12 06:24 53.33380 -2.88016 479 ft 89 kts 270°
2026-04-12 06:25 53.33426 -2.89028 591 ft 86 kts 266°
2026-04-12 06:25 53.33373 -2.90024 675 ft 86 kts 246°
2026-04-12 06:25 53.32991 -2.90758 781 ft 84 kts 202°
2026-04-12 06:25 53.32443 -2.90856 918 ft 76 kts 177°
2026-04-12 06:26 53.31921 -2.90571 940 ft 85 kts 155°
2026-04-12 06:26 53.31523 -2.89850 1036 ft 85 kts 133°
2026-04-12 06:26 53.31218 -2.88956 1045 ft 91 kts 133°
2026-04-12 06:26 53.30884 -2.88059 1116 ft 92 kts 132°
2026-04-12 06:27 53.30596 -2.87071 1153 ft 96 kts 124°
2026-04-12 06:27 53.30365 -2.86018 1217 ft 98 kts 123°
2026-04-12 06:27 53.30122 -2.84942 1284 ft 98 kts 126°
2026-04-12 06:27 53.29868 -2.83858 1319 ft 102 kts 126°
2026-04-12 06:28 53.29595 -2.82760 1355 ft 101 kts 129°
2026-04-12 06:28 53.29306 -2.81720 1402 ft 99 kts 134°
2026-04-12 06:28 53.28982 -2.80703 1414 ft 100 kts 135°
2026-04-12 06:28 53.28623 -2.79705 1449 ft 99 kts 141°
2026-04-12 06:29 53.28224 -2.78754 1450 ft 101 kts 140°
2026-04-12 06:29 53.27886 -2.77687 1430 ft 107 kts 128°
2026-04-12 06:29 53.27737 -2.76428 1381 ft 117 kts 104°
2026-04-12 06:29 53.27845 -2.75038 1365 ft 123 kts 86°
2026-04-12 06:30 53.28090 -2.73638 1383 ft 128 kts 83°
2026-04-12 06:30 53.28245 -2.72694 1411 ft 127 kts 84°
2026-04-12 06:30 53.28537 -2.70788 1427 ft 126 kts 86°
2026-04-12 06:30 53.28717 -2.69346 1396 ft 127 kts 91°
2026-04-12 06:31 53.28846 -2.67903 1388 ft 124 kts 93°
2026-04-12 06:31 53.28961 -2.66504 1420 ft 120 kts 96°
2026-04-12 06:31 53.29027 -2.65103 1378 ft 121 kts 97°
2026-04-12 06:31 53.29137 -2.63716 1397 ft 121 kts 91°
2026-04-12 06:32 53.29219 -2.62792 1380 ft 121 kts 94°
2026-04-12 06:32 53.29319 -2.61377 1377 ft 123 kts 92°
2026-04-12 06:32 53.29619 -2.60001 1283 ft 130 kts 66°
2026-04-12 06:32 53.30144 -2.58821 1298 ft 128 kts 52°
2026-04-12 06:33 53.31116 -2.57624 1257 ft 132 kts 18°
2026-04-12 06:33 53.31996 -2.57323 1332 ft 128 kts
2026-04-12 06:33 53.32880 -2.57043 1348 ft 129 kts
2026-04-12 06:33 53.33756 -2.56773 1399 ft 128 kts
2026-04-12 06:34 53.34646 -2.56720 1384 ft 129 kts 353°
2026-04-12 06:34 53.35237 -2.56741 1401 ft 128 kts 351°
2026-04-12 06:34 53.36442 -2.56842 1375 ft 129 kts 348°
2026-04-12 06:34 53.37335 -2.56936 1346 ft 129 kts 352°
2026-04-12 06:35 53.38852 -2.56943 1318 ft 132 kts 355°
2026-04-12 06:35 53.39772 -2.56869 1304 ft 132 kts 358°
2026-04-12 06:35 53.40690 -2.56772 1284 ft 132 kts
2026-04-12 06:36 53.41575 -2.56436 1325 ft 130 kts 11°
2026-04-12 06:36 53.42467 -2.56097 1349 ft 133 kts
2026-04-12 06:36 53.43365 -2.55734 1396 ft 132 kts 13°
2026-04-12 06:36 53.44247 -2.55252 1383 ft 134 kts 17°
2026-04-12 06:37 53.45127 -2.54737 1392 ft 134 kts 18°
2026-04-12 06:37 53.46011 -2.54230 1380 ft 134 kts 18°
2026-04-12 06:37 53.46864 -2.53623 1368 ft 133 kts 28°
2026-04-12 06:37 53.47626 -2.52728 1360 ft 134 kts 44°
2026-04-12 06:38 53.48287 -2.51654 1379 ft 132 kts 49°
2026-04-12 06:38 53.48941 -2.50574 1379 ft 131 kts 49°
2026-04-12 06:38 53.49577 -2.49497 1363 ft 133 kts 49°
2026-04-12 06:38 53.50148 -2.48307 1362 ft 129 kts 69°
2026-04-12 06:39 53.50498 -2.46957 1397 ft 123 kts 77°
2026-04-12 06:39 53.50818 -2.45630 1395 ft 122 kts 81°
2026-04-12 06:39 53.51056 -2.44357 1314 ft 111 kts 86°
2026-04-12 06:39 53.51275 -2.43139 1226 ft 108 kts 83°
2026-04-12 06:40 53.51541 -2.41955 1135 ft 106 kts 82°
2026-04-12 06:40 53.51716 -2.40782 1089 ft 104 kts 94°
2026-04-12 06:40 53.51785 -2.39616 1116 ft 97 kts 99°
2026-04-12 06:40 53.51863 -2.38469 1041 ft 101 kts 91°
2026-04-12 06:41 53.51866 -2.37323 1116 ft 95 kts 124°
2026-04-12 06:41 53.51576 -2.36386 1142 ft 85 kts 139°
2026-04-12 06:41 53.51230 -2.35586 1129 ft 86 kts 146°
2026-04-12 06:41 53.50803 -2.34970 1144 ft 77 kts 169°
2026-04-12 06:42 53.50319 -2.34627 1081 ft 74 kts 175°
2026-04-12 06:42 53.49832 -2.34441 999 ft 70 kts 183°
2026-04-12 06:42 53.49346 -2.34408 909 ft 70 kts 186°
2026-04-12 06:42 53.48865 -2.34402 835 ft 66 kts 188°
2026-04-12 06:43 53.48382 -2.34472 723 ft 74 kts 190°
2026-04-12 06:43 53.47876 -2.34645 675 ft 74 kts 209°
2026-04-12 06:43 53.47511 -2.35252 593 ft 75 kts 236°
2026-04-12 06:43 53.47370 -2.36080 455 ft 78 kts 263°
2026-04-12 06:44 53.47335 -2.36690 393 ft 77 kts 255°
2026-04-12 06:44 53.47241 -2.37864 211 ft 75 kts 257°
2026-04-12 06:44 53.47189 -2.38680 83 ft 62 kts 256°
2026-04-12 06:44 53.47139 -2.39173 69 ft 22 kts 247°
2026-04-12 06:45 53.47111 -2.39152 69 ft 17 kts 80°
2026-04-12 06:45 53.47129 -2.38906 73 ft 21 kts 89°
2026-04-12 06:45 53.47130 -2.38732 75 ft 10 kts 83°
2026-04-12 06:45 53.47129 -2.38648 75 ft 6 kts 118°
2026-04-12 06:46 53.47110 -2.38613 74 ft 5 kts 139°
2026-04-12 06:46 53.47082 -2.38603 74 ft 3 kts 217°
2026-04-12 06:46 53.47075 -2.38612 74 ft 3 kts 218°
2026-04-12 06:46 53.47057 -2.38645 74 ft 2 kts 260°
2026-04-12 06:47 53.47060 -2.38658 74 ft 0 kts 305°